This is the latest recevied weather packets stored in our database for station/object KC4JES. If no packets are shown the sender has not sent any weather packets the latest 10 day(s).
| Time | Temp. | Humidity | Pressure | Rain* | Wind** | Luminosity | Snow |
|---|---|---|---|---|---|---|---|
| 1777811152 | 16.11° C | 93% | 1018.6 hPa | 0 mm | - | 36 W/m² | - |
| 1777810849 | 15.56° C | 95% | 1018.8 hPa | 0 mm | - | 35 W/m² | - |
| 1777810546 | 15.56° C | 96% | 1018.7 hPa | 0 mm | - | 30 W/m² | - |
| 1777810243 | 15.56° C | 97% | 1018.7 hPa | 0 mm | - | 31 W/m² | - |
| 1777809938 | 15° C | 97% | 1018.6 hPa | 0 mm | - | 30 W/m² | - |
| 1777809637 | 15° C | 98% | 1018.6 hPa | 0 mm | - | 28 W/m² | - |
| 1777809334 | 15° C | 98% | 1018.5 hPa | 0 mm | - | 25 W/m² | - |
| 1777809032 | 15° C | 98% | 1018.5 hPa | 0 mm | - | 24 W/m² | - |
| 1777808729 | 14.44° C | 98% | 1018.5 hPa | 0 mm | - | 23 W/m² | - |
| 1777808426 | 14.44° C | 98% | 1018.3 hPa | 0 mm | - | 21 W/m² | - |
| 1777808124 | 14.44° C | 98% | 1018.6 hPa | 0 mm | - | 20 W/m² | - |
| 1777807822 | 14.44° C | 98% | 1018.4 hPa | 0 mm | - | 19 W/m² | - |
| 1777807520 | 14.44° C | 98% | 1018.5 hPa | 0 mm | - | 17 W/m² | - |
| 1777807215 | 14.44° C | 98% | 1018.4 hPa | 0 mm | - | 16 W/m² | - |
| 1777806912 | 14.44° C | 98% | 1018.3 hPa | 0 mm | - | 14 W/m² | - |
| 1777806608 | 14.44° C | 98% | 1018.2 hPa | 0 mm | - | 12 W/m² | - |
| 1777806304 | 14.44° C | 98% | 1018.1 hPa | 0.51 mm | - | 10 W/m² | - |
| 1777806001 | 14.44° C | 98% | 1018.1 hPa | 0 mm | - | 8 W/m² | - |
| 1777805698 | 14.44° C | 98% | 1018.1 hPa | 0 mm | - | 6 W/m² | - |
| 1777805395 | 14.44° C | 98% | 1018.2 hPa | 0 mm | - | 4 W/m² | - |
| 1777805094 | 14.44° C | 98% | 1018 hPa | 0 mm | - | 3 W/m² | - |
| 1777804791 | 14.44° C | 98% | 1018.1 hPa | 0 mm | - | 2 W/m² | - |
| 1777804489 | 14.44° C | 98% | 1017.8 hPa | 0 mm | - | 1 W/m² | - |
| 1777804185 | 15° C | 98% | 1018 hPa | 0 mm | - | 0 W/m² | - |
| 1777803883 | 15° C | 98% | 1018 hPa | 0 mm | - | 0 W/m² | - |
* Rain latest hour (hover to see other rain measurements)
** Current wind speed in m/s (hover to see current wind gust speed)